Groton, CT

12:27 PM EDT on July 23, 2016 (GMT -0400)
Groton-New London

Weather History for KGON - November, 2012

Change the Weather History Date:

Saturday, November 3, 2012

  Actual Average Record
Temperature  
Mean Temperature 48 °F -  
Max Temperature 55 °F 60 °F 78 °F (1999)
Min Temperature 42 °F 41 °F 24 °F (1965)
Degree Days  
Heating Degree Days 16    
Moisture  
Dew Point 31 °F    
Average Humidity 56    
Maximum Humidity 73    
Minimum Humidity 40    
Precipitation  
Precipitation 0.00 in - - ()
Sea Level Pressure  
Sea Level Pressure 29.75 in    
Wind  
Wind Speed 11 mph (NW)    
Max Wind Speed 20 mph    
Max Gust Speed 26 mph    
Visibility 10 miles    
Events      
Averages and records for this station are not official NWS values.
T = Trace of Precipitation, MM = Missing Value Source: NWS Daily Summary

Daily Weather History Graph

Daily Weather History Graph

Search for Another Location

Airport or City:

Trip Planner

Search our weather history database for the weather conditions in past years. The results will help you decide how hot, cold, wet, or windy it might be!

Date:

Astronomy

Nov. 03, 2012 Rise Set
Actual Time 7:22 AM EDT 5:40 PM EDT
Civil Twilight 6:53 AM EDT 6:09 PM EDT
Nautical Twilight 6:20 AM EDT 6:41 PM EDT
Astronomical Twilight 5:48 AM EDT 7:14 PM EDT
Moon 9:17 PM EDT (11/3) 11:25 AM EDT (11/3)
Length of Visible Light 11h 15m
Length of Day
10h 17m
Waning Gibbous, 80% of the Moon is Illuminated
Nov 3
Waning Gibbous
Nov 6
Last Quarter
Nov 13
New
Nov 20
First Quarter
Nov 28
Full

Hourly Weather History & Observations

Time (EDT) Temp. Windchill Dew Point Humidity Pressure Visibility Wind Dir Wind Speed Gust Speed Precip Events Conditions
12:56 AM 42.1 °F 36.6 °F 30.9 °F 65% 29.67 in 10.0 mi NW 9.2 mph - N/A   Clear
1:56 AM 42.1 °F 37.7 °F 32.0 °F 67% 29.67 in 10.0 mi WNW 6.9 mph 17.3 mph N/A   Clear
2:56 AM 43.0 °F 38.2 °F 34.0 °F 71% 29.68 in 10.0 mi WNW 8.1 mph - N/A   Mostly Cloudy
3:56 AM 43.0 °F 37.7 °F 33.1 °F 68% 29.68 in 10.0 mi NW 9.2 mph - N/A   Clear
4:56 AM 42.1 °F 38.4 °F 33.1 °F 70% 29.68 in 10.0 mi NW 5.8 mph - N/A   Mostly Cloudy
5:56 AM 42.1 °F - 34.0 °F 73% 29.70 in 10.0 mi Calm Calm - N/A   Overcast
6:56 AM 43.0 °F 36.8 °F 34.0 °F 71% 29.70 in 10.0 mi WNW 11.5 mph - N/A   Mostly Cloudy
7:56 AM 44.1 °F 37.4 °F 33.1 °F 65% 29.73 in 10.0 mi NW 13.8 mph - N/A   Overcast
8:56 AM 44.1 °F 37.1 °F 32.0 °F 63% 29.75 in 10.0 mi NW 15.0 mph 18.4 mph N/A   Mostly Cloudy
9:56 AM 45.0 °F 38.2 °F 32.0 °F 60% 29.75 in 10.0 mi NW 15.0 mph 20.7 mph N/A   Partly Cloudy
10:56 AM 50.0 °F - 32.0 °F 50% 29.75 in 10.0 mi WNW 12.7 mph - N/A   Scattered Clouds
11:56 AM 52.0 °F - 32.0 °F 47% 29.75 in 10.0 mi NNW 10.4 mph 20.7 mph N/A   Partly Cloudy
12:56 PM 54.0 °F - 32.0 °F 43% 29.73 in 10.0 mi WNW 13.8 mph - N/A   Clear
1:56 PM 55.0 °F - 32.0 °F 42% 29.73 in 10.0 mi WNW 11.5 mph 18.4 mph N/A   Clear
2:56 PM 55.0 °F - 30.9 °F 40% 29.73 in 10.0 mi NW 11.5 mph - N/A   Clear
3:56 PM 53.1 °F - 30.0 °F 41% 29.75 in 10.0 mi WNW 18.4 mph 23.0 mph N/A   Clear
4:56 PM 50.0 °F - 28.9 °F 44% 29.76 in 10.0 mi NW 17.3 mph 24.2 mph N/A   Clear
5:56 PM 46.9 °F - 28.9 °F 50% 29.79 in 10.0 mi NW 19.6 mph 26.5 mph N/A   Clear
6:56 PM 46.0 °F 41.0 °F 28.9 °F 51% 29.81 in 10.0 mi NW 10.4 mph - N/A   Partly Cloudy
7:56 PM 46.0 °F 39.0 °F 28.0 °F 50% 29.83 in 10.0 mi NW 17.3 mph 24.2 mph N/A   Overcast
8:56 PM 46.0 °F 39.3 °F 28.0 °F 50% 29.84 in 10.0 mi WNW 16.1 mph 20.7 mph N/A   Overcast
9:56 PM 45.0 °F 39.3 °F 28.0 °F 52% 29.84 in 10.0 mi NW 11.5 mph - N/A   Overcast
10:56 PM 43.0 °F 37.2 °F 28.0 °F 56% 29.85 in 10.0 mi NW 10.4 mph - N/A   Clear
11:56 PM 42.1 °F 36.6 °F 28.9 °F 60% 29.85 in 10.0 mi NW 9.2 mph - N/A   Clear